Weather History for Topcliffe RAF, United Kingdom

Change the Weather History Date:

Saturday, March 1, 2014

  Actual Average Record
Temperature  
Mean Temperature 34 °F -  
Max Temperature 44 °F 48 °F - ()
Min Temperature 24 °F 36 °F - ()
Degree Days  
Heating Degree Days 31    
Moisture  
Dew Point 32 °F    
Average Humidity 86    
Maximum Humidity 100    
Minimum Humidity 61    
Precipitation  
Precipitation 0.00 in - - ()
Sea Level Pressure  
Sea Level Pressure 29.55 in    
Wind  
Wind Speed 4 mph ()    
Max Wind Speed 14 mph    
Max Gust Speed -    
Visibility 4.6 miles    
Events Fog    
T = Trace of Precipitation, MM = Missing Value Source: Averaged Metar Reports

Daily Weather History Graph

Daily Weather History Graph

Search for Another Location

Airport:

Trip Planner

Search our weather history database for the weather conditions in past years. The results will help you decide how hot, cold, wet, or windy it might be!

Date:

Astronomy

Mar. 01, 2014 Rise Set
Actual Time 6:54 AM GMT 5:42 PM GMT
Civil Twilight 6:19 AM GMT 6:17 PM GMT
Nautical Twilight 5:38 AM GMT 6:58 PM GMT
Astronomical Twilight 4:56 AM GMT 7:40 PM GMT
Moon 6:33 AM GMT (3/1) 6:22 PM GMT (3/1)
Length of Visible Light 11h 58m
Length of Day
10h 47m
New Moon, 0% of the Moon is Illuminated
Mar 1
New Moon
Mar 8
First Quarter
Mar 16
Full
Mar 24
Last Quarter
Mar 30
New

Hourly Weather History & Observations

Time (GMT) Temp. Windchill Dew Point Humidity Pressure Visibility Wind Dir Wind Speed Gust Speed Precip Events Conditions
12:50 AM 32.0 °F - 30.2 °F 93% 29.62 in 5.6 mi East 1.2 mph - N/A   Overcast
1:50 AM 30.2 °F - 30.2 °F 100% 29.62 in 4.3 mi NNE 1.2 mph - N/A   Haze
2:50 AM 30.2 °F - 28.4 °F 93% 29.59 in 6.2 mi ENE 2.3 mph - N/A   Overcast
3:50 AM 28.4 °F - 28.4 °F 100% 29.59 in 0.2 mi SSW 2.3 mph - N/A Fog Fog
4:50 AM 24.8 °F 17.9 °F 24.8 °F 100% 29.59 in 3.1 mi East 5.8 mph - N/A   Mostly Cloudy
5:50 AM 26.6 °F 22.6 °F 26.6 °F 100% 29.59 in 0.1 mi ESE 3.5 mph - N/A Fog Light Freezing Fog
6:50 AM 26.6 °F 21.2 °F 24.8 °F 93% 29.59 in 0.1 mi East 4.6 mph - N/A Fog Light Freezing Fog
7:50 AM 28.4 °F - 28.4 °F 100% 29.59 in 1.5 mi NE 1.2 mph - N/A   Partly Cloudy
8:50 AM 35.6 °F 32.8 °F 33.8 °F 93% 29.59 in 3.7 mi ESE 3.5 mph - N/A   Unknown
9:50 AM 39.2 °F 37.0 °F 35.6 °F 87% 29.59 in 6.2 mi South 3.5 mph - N/A   Mostly Cloudy
10:50 AM 41.0 °F 37.1 °F 37.4 °F 87% 29.59 in 6.2 mi SSE 5.8 mph - N/A   Mostly Cloudy
11:50 AM 44.6 °F 42.2 °F 35.6 °F 71% 29.56 in 6.2 mi SSE 4.6 mph - N/A   Mostly Cloudy
12:50 PM 44.6 °F 43.1 °F 37.4 °F 76% 29.56 in 6.2 mi SSE 3.5 mph - N/A   Mostly Cloudy
1:50 PM 44.6 °F 42.2 °F 35.6 °F 71% 29.53 in 6.2 mi South 4.6 mph - N/A   Mostly Cloudy
2:50 PM 44.6 °F 41.4 °F 35.6 °F 71% 29.53 in 6.2 mi SSE 5.8 mph - N/A   Overcast
3:50 PM 44.6 °F 40.2 °F 32.0 °F 61% 29.53 in 6.2 mi SW 8.1 mph - N/A   Scattered Clouds
4:50 PM 42.8 °F 41.1 °F 33.8 °F 70% 29.53 in 6.2 mi SW 3.5 mph - N/A   Partly Cloudy
5:50 PM 39.2 °F - 32.0 °F 75% 29.53 in 6.2 mi SW 2.3 mph - N/A   Mostly Cloudy
6:50 PM 35.6 °F 31.7 °F 32.0 °F 87% 29.53 in 6.2 mi SE 4.6 mph - N/A   Mostly Cloudy
7:50 PM 32.0 °F 24.8 °F 30.2 °F 93% 29.50 in 3.7 mi SE 8.1 mph - N/A   Haze
8:50 PM 33.8 °F 27.0 °F 32.0 °F 93% 29.47 in 4.3 mi SSE 8.1 mph - N/A   Haze
9:50 PM 35.6 °F 29.2 °F 32.0 °F 87% 29.47 in 3.7 mi SE 8.1 mph - N/A   Haze
10:50 PM 37.4 °F 30.8 °F 33.8 °F 87% 29.44 in 5.0 mi SE 9.2 mph - N/A   Haze
11:50 PM 37.4 °F 28.9 °F 33.8 °F 87% 29.42 in 6.2 mi SE 13.8 mph - N/A   Mostly Cloudy